GW5593 Weather Reports


time (UTC)temp
C
wind
direction
speed
KPH
gust
KPH
rain 1hr
cm
rain 24hr
cm
rain mn
cm
humidity
%
barometer
mb
20260504000643 14 190 4.8 8.0 0.00 0.00 0.03 58 1011.0
20260504000144 14 217 4.8 9.7 0.00 0.00 0.03 58 1011.0
20260503235643 14 200 3.2 6.4 0.00 0.00 0.03 59 1012.0
20260503235143 14 212 6.4 12.9 0.00 0.00 0.03 59 1012.0
20260503234643 14 221 4.8 11.3 0.10 0.00 0.03 59 1012.0
20260503234143 14 197 6.4 11.3 0.00 0.00 0.03 60 1012.0
20260503233643 14 210 6.4 9.7 0.00 0.00 0.00 61 1012.0
20260503233143 14 212 4.8 8.0 0.00 0.00 0.00 62 1012.0
20260503232643 14 193 3.2 8.0 0.03 0.00 0.00 63 1012.0
20260503232143 15 213 6.4 11.3 0.03 0.00 0.00 59 1012.0
20260503231643 15 215 6.4 9.7 0.00 0.00 0.00 56 1012.0
20260503231143 15 204 3.2 6.4 0.00 0.00 0.00 56 1012.0
20260503230643 15 143 4.8 11.3 0.00 0.00 0.00 55 1012.0
20260503230145 15 216 6.4 11.3 0.00 0.00 0.00 53 1012.0
20260503225643 15 186 6.4 11.3 0.00 0.00 0.00 53 1012.0
20260503225143 15 194 4.8 9.7 0.00 0.00 0.00 53 1012.0
20260503224643 15 205 6.4 14.5 0.00 0.00 0.00 53 1012.0
20260503224144 16 170 4.8 11.3 0.00 0.00 0.00 51 1012.0
20260503223648 16 214 8.0 12.9 0.00 0.00 0.00 51 1012.0
20260503223143 16 215 6.4 11.3 0.00 0.00 0.00 50 1012.0
20260503222643 16 215 4.8 9.7 0.00 0.00 0.00 50 1012.0
20260503222143 16 217 6.4 11.3 0.00 0.00 0.00 50 1012.0
20260503221643 16 208 6.4 9.7 0.00 0.00 0.00 48 1012.0
20260503221143 16 159 6.4 8.0 0.00 0.00 0.00 48 1012.0
20260503220643 16 218 4.8 11.3 0.00 0.00 0.00 48 1012.0
20260503220143 16 182 8.0 12.9 0.00 0.00 0.00 46 1013.0
20260503215643 16 205 8.0 9.7 0.00 0.00 0.00 47 1012.0
20260503215143 16 190 6.4 12.9 0.00 0.00 0.00 47 1013.0
20260503214644 16 211 9.7 16.1 0.00 0.00 0.00 46 1013.0
20260503214143 16 212 6.4 12.9 0.00 0.00 0.00 47 1013.0
20260503213644 16 200 4.8 9.7 0.00 0.00 0.00 49 1012.0
20260503213144 16 189 4.8 9.7 0.00 0.00 0.00 47 1013.0
20260503212644 16 218 8.0 12.9 0.00 0.00 0.00 48 1013.0
20260503212143 17 222 6.4 9.7 0.00 0.00 0.00 46 1013.0
20260503211644 17 239 6.4 11.3 0.00 0.00 0.00 46 1013.0
20260503211143 17 220 9.7 20.9 0.00 0.00 0.00 47 1013.0
20260503210643 17 225 8.0 14.5 0.00 0.00 0.00 47 1013.0
20260503210143 16 200 9.7 14.5 0.00 0.00 0.00 46 1013.0
20260503205144 16 205 9.7 16.1 0.00 0.00 0.00 46 1014.0
20260503204643 16 183 8.0 12.9 0.00 0.00 0.00 47 1014.0
20260503204144 16 196 8.0 14.5 0.00 0.00 0.00 47 1014.0
20260503203643 16 212 11.3 19.3 0.00 0.00 0.00 46 1014.0
20260503203144 17 220 6.4 9.7 0.00 0.00 0.00 47 1014.0
20260503202643 17 263 6.4 9.7 0.00 0.00 0.00 46 1014.0
20260503202144 17 203 6.4 11.3 0.00 0.00 0.00 45 1014.0
20260503201643 17 252 6.4 9.7 0.00 0.00 0.00 46 1015.0
20260503201143 17 210 8.0 17.7 0.00 0.00 0.00 45 1015.0
20260503200646 17 215 6.4 17.7 0.00 0.00 0.00 44 1015.0
20260503200143 16 200 4.8 8.0 0.00 0.00 0.00 45 1014.0
20260503195644 16 203 8.0 14.5 0.00 0.00 0.00 44 1015.0
20260503195143 16 262 4.8 12.9 0.00 0.00 0.00 46 1015.0
20260503194644 16 221 8.0 12.9 0.00 0.00 0.00 45 1015.0
20260503194143 16 231 8.0 12.9 0.00 0.00 0.00 45 1015.0
20260503193643 16 193 4.8 8.0 0.00 0.00 0.00 46 1015.0
20260503193143 17 195 6.4 9.7 0.00 0.00 0.00 44 1015.0
20260503192643 17 255 8.0 12.9 0.00 0.00 0.00 45 1015.0
20260503192144 17 114 4.8 9.7 0.00 0.00 0.00 44 1015.0
20260503191643 17 249 6.4 11.3 0.00 0.00 0.00 45 1015.0
20260503191144 17 216 4.8 8.0 0.00 0.00 0.00 45 1015.0
20260503190643 17 216 4.8 9.7 0.00 0.00 0.00 45 1015.0
20260503190143 17 211 8.0 11.3 0.00 0.00 0.00 46 1015.0
20260503185643 17 242 6.4 12.9 0.00 0.00 0.00 44 1015.0
20260503185143 16 228 4.8 9.7 0.00 0.00 0.00 48 1015.0
20260503184643 16 184 4.8 12.9 0.00 0.00 0.00 45 1015.0
20260503184143 17 223 8.0 11.3 0.00 0.00 0.00 44 1016.0
20260503183644 17 218 4.8 8.0 0.00 0.00 0.00 46 1016.0
20260503183145 17 248 6.4 12.9 0.00 0.00 0.00 44 1016.0
20260503182643 16 217 8.0 16.1 0.00 0.00 0.00 45 1016.0
20260503182145 16 257 4.8 11.3 0.00 0.00 0.00 45 1016.0
20260503181643 16 221 6.4 11.3 0.00 0.00 0.00 45 1016.0
20260503181147 16 188 6.4 14.5 0.00 0.00 0.00 44 1016.0
20260503180644 16 214 4.8 8.0 0.00 0.00 0.00 45 1017.0
20260503180143 16 209 4.8 11.3 0.00 0.00 0.00 46 1017.0
20260503175644 16 278 9.7 16.1 0.00 0.00 0.00 45 1017.0
20260503175143 16 241 6.4 8.0 0.00 0.00 0.00 45 1017.0
20260503174207 16 208 6.4 12.9 0.00 0.00 0.00 44 1017.0
20260503173644 15 218 8.0 14.5 0.00 0.00 0.00 43 1017.0
20260503173144 15 230 8.0 12.9 0.00 0.00 0.00 44 1017.0
20260503172643 16 208 8.0 14.5 0.00 0.00 0.00 43 1017.0
20260503172144 16 203 8.0 14.5 0.00 0.00 0.00 41 1017.0
20260503171644 16 196 8.0 14.5 0.00 0.00 0.00 41 1017.0
20260503171145 15 258 4.8 12.9 0.00 0.00 0.00 43 1017.0
20260503170643 15 204 4.8 8.0 0.00 0.00 0.00 44 1017.0
20260503170145 15 268 8.0 16.1 0.00 0.00 0.00 43 1017.0
20260503160144 15 229 6.4 14.5 0.00 0.00 0.00 43 1018.0
20260503150643 13 237 8.0 12.9 0.00 0.00 0.00 48 1019.0
20260503150147 13 253 4.8 11.3 0.00 0.00 0.00 48 1019.0
20260503140146 11 262 6.4 14.5 0.00 0.00 0.00 51 1019.0
20260503131144 9 212 4.8 9.7 0.00 0.00 0.00 57 1019.0
20260503130645 8 215 6.4 11.3 0.00 0.00 0.00 58 1019.0
20260503130145 8 202 6.4 14.5 0.00 0.00 0.00 59 1019.0
20260503120143 5 181 3.2 6.4 0.00 0.00 0.00 68 1019.0
20260503110643 3 99 0.0 1.6 0.00 0.00 0.00 77 1019.0
20260503110144 3 356 0.0 0.0 0.00 0.00 0.00 76 1019.0
20260503100147 3 183 1.6 3.2 0.00 0.00 0.00 75 1018.0
20260503090145 3 194 1.6 4.8 0.00 0.00 0.00 75 1018.0
20260503081143 3 0 0.0 0.0 0.00 0.00 0.00 78 1018.0
20260503080643 3 215 0.0 1.6 0.00 0.00 0.00 78 1018.0
20260503080143 3 0 0.0 0.0 0.00 0.00 0.00 78 1018.0
20260503072644 3 326 0.0 3.2 0.00 0.00 0.00 77 1018.0
20260503072145 3 141 0.0 1.6 0.00 0.00 0.00 77 1018.0
20260503071644 3 289 0.0 1.6 0.00 0.00 0.00 76 1018.0
20260503071143 3 281 0.0 1.6 0.00 0.00 0.00 78 1018.0
20260503070644 3 0 0.0 0.0 0.00 0.00 0.00 77 1018.0
20260503070143 3 0 0.0 0.0 0.00 0.00 0.00 77 1018.0
20260503060144 3 334 0.0 3.2 0.00 0.00 0.00 77 1019.0
20260503054643 3 0 0.0 0.0 0.00 0.00 0.00 77 1019.0
20260503054144 3 0 0.0 0.0 0.00 0.00 0.00 77 1019.0
20260503053644 3 24 0.0 3.2 0.00 0.00 0.00 77 1019.0
20260503053143 3 56 0.0 1.6 0.00 0.00 0.00 77 1019.0
20260503052644 3 52 0.0 1.6 0.00 0.00 0.00 77 1019.0
20260503052143 3 69 0.0 0.0 0.00 0.00 0.00 76 1019.0
20260503051643 3 355 0.0 3.2 0.00 0.00 0.00 77 1019.0
20260503051143 3 108 0.0 1.6 0.00 0.00 0.00 78 1019.0
20260503050644 3 209 0.0 1.6 0.00 0.00 0.00 79 1019.0
20260503050146 3 0 0.0 0.0 0.00 0.00 0.00 79 1019.0
20260503045644 3 0 0.0 0.0 0.00 0.00 0.00 80 1019.0
20260503045143 3 0 0.0 0.0 0.00 0.00 0.00 80 1019.0
20260503044643 3 88 0.0 0.0 0.00 0.00 0.00 79 1019.0
20260503044143 3 0 0.0 0.0 0.00 0.00 0.00 79 1019.0
20260503043643 3 0 0.0 0.0 0.00 0.00 0.00 81 1019.0
20260503043143 3 279 0.0 1.6 0.00 0.00 0.00 84 1019.0
20260503042644 2 0 0.0 0.0 0.00 0.00 0.00 87 1019.0
20260503042143 2 0 0.0 0.0 0.00 0.00 0.00 87 1019.0
20260503041646 2 0 0.0 0.0 0.00 0.00 0.00 87 1019.0
20260503041143 2 33 0.0 1.6 0.00 0.00 0.00 87 1019.0
20260503040644 2 146 0.0 1.6 0.00 0.00 0.00 88 1019.0
20260503040143 2 88 0.0 0.0 0.00 0.00 0.00 87 1019.0
20260503035643 2 92 0.0 0.0 0.00 0.00 0.00 88 1019.0
20260503034705 3 45 0.0 1.6 0.00 0.00 0.00 87 1019.0
20260503034143 3 56 0.0 1.6 0.00 0.00 0.00 86 1019.0
20260503033643 3 171 0.0 1.6 0.00 0.00 0.00 85 1019.0
20260503033143 3 99 0.0 1.6 0.00 0.00 0.00 85 1019.0
20260503032644 3 23 0.0 1.6 0.00 0.00 0.00 86 1019.0
20260503032146 3 87 0.0 0.0 0.00 0.00 0.00 85 1019.0
20260503031644 3 0 0.0 0.0 0.00 0.00 0.00 84 1019.0
20260503031143 3 60 0.0 1.6 0.00 0.00 0.00 83 1019.0
20260503030643 3 0 0.0 0.0 0.00 0.00 0.00 80 1019.0
20260503030143 3 76 0.0 1.6 0.00 0.00 0.00 78 1019.0
20260503025643 3 0 0.0 0.0 0.00 0.00 0.00 78 1019.0
20260503025143 4 118 0.0 0.0 0.00 0.00 0.00 77 1019.0
20260503024645 4 100 0.0 0.0 0.00 0.00 0.00 76 1019.0
20260503024143 4 0 0.0 0.0 0.00 0.00 0.00 74 1019.0
20260503023644 5 38 0.0 1.6 0.00 0.00 0.00 73 1019.0
20260503023150 5 0 0.0 0.0 0.00 0.00 0.00 72 1019.0
20260503022644 5 0 0.0 0.0 0.00 0.00 0.00 72 1019.0
20260503022143 5 327 0.0 0.0 0.00 0.00 0.00 71 1019.0
20260503021644 5 0 0.0 0.0 0.00 0.00 0.00 72 1019.0
20260503021144 5 0 0.0 0.0 0.00 0.00 0.00 72 1019.0
20260503020643 5 0 0.0 0.0 0.00 0.00 0.00 70 1019.0
20260503020144 5 0 0.0 0.0 0.00 0.00 0.00 68 1019.0
20260503015643 5 0 0.0 0.0 0.00 0.00 0.00 67 1019.0
20260503015143 5 0 0.0 0.0 0.00 0.00 0.00 65 1019.0
20260503014645 5 0 0.0 0.0 0.00 0.00 0.00 64 1019.0
20260503014143 6 0 0.0 0.0 0.00 0.00 0.00 62 1019.0
20260503013643 6 77 0.0 0.0 0.00 0.00 0.00 61 1019.0
20260503013143 6 37 0.0 0.0 0.00 0.00 0.00 61 1019.0
20260503012644 6 218 0.0 0.0 0.00 0.00 0.00 60 1019.0
20260503012145 6 0 0.0 0.0 0.00 0.00 0.00 59 1019.0
20260503011643 7 0 0.0 0.0 0.00 0.00 0.00 57 1019.0
20260503011143 7 0 0.0 0.0 0.00 0.00 0.00 56 1019.0
20260503010644 7 0 0.0 0.0 0.00 0.00 0.00 55 1019.0
20260503010145 7 0 0.0 0.0 0.00 0.00 0.00 54 1019.0
20260503005646 8 0 0.0 0.0 0.00 0.00 0.00 53 1019.0
20260503005144 8 0 0.0 0.0 0.00 0.00 0.00 53 1019.0
20260503004644 8 26 0.0 1.6 0.00 0.00 0.00 50 1019.0
20260503004143 8 33 0.0 1.6 0.00 0.00 0.00 50 1019.0
20260503003643 9 282 0.0 3.2 0.00 0.00 0.00 49 1019.0
20260503003144 9 314 1.6 4.8 0.00 0.00 0.00 47 1019.0
20260503002643 9 336 0.0 1.6 0.00 0.00 0.00 47 1018.0
20260503002143 9 318 1.6 4.8 0.00 0.00 0.00 46 1018.0
20260503001644 10 290 1.6 3.2 0.00 0.00 0.00 46 1018.0
20260503001145 10 311 3.2 3.2 0.00 0.00 0.00 44 1018.0